Weather History for KAEX - August, 2012

Change the Weather History Date:

Saturday, August 25, 2012

  Actual Average Record
Temperature  
Mean Temperature 78 °F 82 °F  
Max Temperature 86 °F 93 °F 104 °F (1906)
Min Temperature 70 °F 71 °F 60 °F (1917)
Cooling Degree Days 13 17  
Month to date cooling degree days 449 445  
Year to date cooling degree days 2192 1891  
Since 1 June cooling degree days 1507 1437  
Growing Degree Days 27 (Base 50)    
Moisture  
Dew Point 71 °F    
Average Humidity 85    
Maximum Humidity 100    
Minimum Humidity 70    
Precipitation  
Precipitation 0.24 in 0.12 in 1.24 in (1977)
Month to date precipitation 3.42 2.81  
Year to date precipitation 41.52 35.54  
Sea Level Pressure  
Sea Level Pressure 29.99 in    
Wind  
Wind Speed 6 mph (SE)    
Max Wind Speed 20 mph    
Max Gust Speed 26 mph    
Visibility 8 miles    
Events Rain , Thunderstorm    
T = Trace of Precipitation, MM = Missing Value Source: NWS Daily Summary

Daily Weather History Graph

Daily Weather History Graph

Search for Another Location

Airport or City:

Trip Planner

Search our weather history database for the weather conditions in past years. The results will help you decide how hot, cold, wet, or windy it might be!

Date:

Astronomy

Aug. 25, 2012 Rise Set
Actual Time 6:42 AM CDT 7:41 PM CDT
Civil Twilight 6:17 AM CDT 8:06 PM CDT
Nautical Twilight 5:47 AM CDT 8:36 PM CDT
Astronomical Twilight 5:17 AM CDT 9:06 PM CDT
Moon 3:03 PM CDT (8/25) 12:38 AM CDT (8/25)
Length of Visible Light 13h 49m
Length of Day
12h 59m
Waxing Gibbous, 63% of the Moon is Illuminated
Aug 25
Waxing Gibbous
Aug 31
Full
Sep 8
Last Quarter
Sep 15
New
Sep 22
First Quarter

Hourly Weather History & Observations

Time (CDT) Temp. Heat Index Dew Point Humidity Pressure Visibility Wind Dir Wind Speed Gust Speed Precip Events Conditions
12:53 AM 73.0 °F - 71.1 °F 93% 29.96 in 6.0 mi SE 6.9 mph - N/A   Overcast
1:53 AM 72.0 °F - 71.1 °F 97% 29.96 in 7.0 mi SE 3.5 mph - N/A   Overcast
2:53 AM 72.0 °F - 70.0 °F 93% 29.96 in 10.0 mi SE 4.6 mph - N/A   Mostly Cloudy
3:09 AM 71.6 °F - 69.8 °F 94% 29.95 in 10.0 mi Calm Calm - N/A   Scattered Clouds
3:53 AM 71.1 °F - 70.0 °F 96% 29.95 in 10.0 mi SE 6.9 mph - N/A   Mostly Cloudy
4:02 AM 71.6 °F - 69.8 °F 94% 29.94 in 10.0 mi SE 6.9 mph - N/A   Scattered Clouds
4:53 AM 70.0 °F - 69.1 °F 97% 29.97 in 9.0 mi SE 4.6 mph - N/A   Clear
5:53 AM 71.6 °F - 69.8 °F 94% 29.97 in 10.0 mi SE 5.8 mph - N/A   Mostly Cloudy
6:53 AM 71.1 °F - 69.1 °F 93% 29.99 in 10.0 mi SE 5.8 mph - N/A   Mostly Cloudy
7:53 AM 73.0 °F - 70.0 °F 90% 30.00 in 10.0 mi SE 6.9 mph - N/A   Overcast
8:53 AM 73.9 °F - 70.0 °F 87% 30.01 in 10.0 mi SE 6.9 mph - N/A   Overcast
9:53 AM 77.0 °F - 71.1 °F 82% 30.02 in 10.0 mi ESE 5.8 mph - N/A   Clear
10:53 AM 81.0 °F 85.8 °F 73.0 °F 77% 30.03 in 10.0 mi SE 9.2 mph - N/A   Mostly Cloudy
11:50 AM 84.2 °F 90.9 °F 73.4 °F 70% 30.00 in 10.0 mi SSE 10.4 mph - N/A   Mostly Cloudy
11:53 AM 84.0 °F 91.2 °F 73.9 °F 72% 30.01 in 10.0 mi SSE 10.4 mph - N/A   Mostly Cloudy
12:19 PM 75.2 °F - 69.8 °F 83% 30.02 in 4.0 mi SW 11.5 mph 26.5 mph 0.03 in Rain Light Rain
12:28 PM 73.4 °F - 71.6 °F 94% 30.02 in 2.0 mi SSW 6.9 mph - 0.09 in Rain Rain
12:36 PM 73.4 °F - 71.6 °F 94% 30.02 in 1.0 mi WSW 4.6 mph - 0.18 in Rain Heavy Rain
12:39 PM 73.4 °F - 71.6 °F 94% 30.02 in 0.8 mi SW 3.5 mph - 0.20 in Rain , Thunderstorm Heavy Rain
12:43 PM 73.4 °F - 71.6 °F 94% 30.03 in 3.0 mi Calm Calm - 0.20 in Rain , Thunderstorm Light Rain
12:53 PM 73.9 °F - 71.1 °F 91% 30.03 in 3.0 mi Calm Calm - 0.22 in Rain , Thunderstorm Rain
1:07 PM 75.2 °F - 71.6 °F 89% 30.02 in 7.0 mi Calm Calm - 0.02 in Rain Light Rain
1:53 PM 77.0 °F - 73.0 °F 88% 30.02 in 10.0 mi SSE 8.1 mph - 0.02 in Rain Light Rain
2:53 PM 79.0 °F - 72.0 °F 79% 29.99 in 10.0 mi SE 8.1 mph - 0.00 in   Partly Cloudy
3:53 PM 81.0 °F 85.2 °F 72.0 °F 74% 29.98 in 10.0 mi SE 8.1 mph - N/A   Partly Cloudy
4:53 PM 81.0 °F 85.2 °F 72.0 °F 74% 29.97 in 10.0 mi SE 6.9 mph - N/A   Clear
5:53 PM 81.0 °F 86.2 °F 73.9 °F 79% 29.97 in 10.0 mi SSE 4.6 mph - N/A   Clear
6:53 PM 80.1 °F 84.5 °F 73.9 °F 81% 29.97 in 10.0 mi SSE 3.5 mph - N/A   Clear
7:53 PM 78.1 °F - 73.9 °F 87% 29.98 in 10.0 mi SE 4.6 mph - N/A   Partly Cloudy
8:53 PM 77.0 °F - 73.0 °F 88% 30.00 in 10.0 mi ESE 9.2 mph - N/A   Clear
9:53 PM 75.0 °F - 72.0 °F 90% 30.01 in 10.0 mi SE 6.9 mph - N/A   Clear
10:53 PM 73.9 °F - 71.1 °F 91% 30.01 in 10.0 mi ESE 5.8 mph - N/A   Clear
11:53 PM 73.0 °F - 71.1 °F 93% 30.01 in 10.0 mi Calm Calm - N/A   Clear